TimeEST,TemperatureF,Dew PointF,Humidity,Sea Level PressureIn,VisibilityMPH,Wind Direction,Wind SpeedMPH,Gust SpeedMPH,PrecipitationIn,Events,Conditions,WindDirDegrees,DateUTC
12:53 AM,57.9,55.9,93,30.19,10.0,North,6.9,-,N/A,,Mostly Cloudy,350,2013-12-26 05:53:00
1:28 AM,57.2,55.4,94,30.20,7.0,NNW,6.9,-,N/A,,Mostly Cloudy,340,2013-12-26 06:28:00
1:53 AM,57.0,55.9,96,30.19,6.0,North,6.9,-,N/A,,Mostly Cloudy,360,2013-12-26 06:53:00
2:18 AM,57.2,55.4,94,30.18,2.0,North,6.9,-,N/A,,Mostly Cloudy,10,2013-12-26 07:18:00
2:28 AM,57.2,55.4,94,30.18,0.5,North,9.2,-,N/A,,Mostly Cloudy,10,2013-12-26 07:28:00
2:53 AM,57.9,57.0,97,30.19,0.5,North,8.1,-,N/A,,Overcast,360,2013-12-26 07:53:00
3:53 AM,57.9,57.0,97,30.18,0.5,North,6.9,-,N/A,,Overcast,10,2013-12-26 08:53:00
4:53 AM,57.0,55.9,96,30.18,0.5,North,5.8,-,N/A,,Mostly Cloudy,10,2013-12-26 09:53:00
5:08 AM,57.2,55.4,94,30.19,0.5,North,5.8,-,N/A,,Mostly Cloudy,360,2013-12-26 10:08:00
5:23 AM,57.2,55.4,94,30.19,2.0,North,5.8,-,N/A,,Overcast,360,2013-12-26 10:23:00
5:53 AM,57.0,55.9,96,30.18,2.0,North,6.9,-,N/A,,Mostly Cloudy,10,2013-12-26 10:53:00
6:13 AM,57.2,55.4,94,30.19,1.0,North,5.8,-,N/A,,Overcast,10,2013-12-26 11:13:00
6:53 AM,57.0,55.9,96,30.19,1.0,NNE,6.9,-,N/A,,Overcast,20,2013-12-26 11:53:00
7:33 AM,57.2,55.4,94,30.21,0.2,North,4.6,-,N/A,,Overcast,360,2013-12-26 12:33:00
7:53 AM,57.9,57.0,97,30.22,0.2,NNW,6.9,-,N/A,Fog,Fog,340,2013-12-26 12:53:00
8:46 AM,59.0,57.2,94,30.23,0.5,North,5.8,-,N/A,,Overcast,350,2013-12-26 13:46:00
8:53 AM,60.1,57.9,93,30.23,0.5,North,5.8,-,N/A,,Mostly Cloudy,350,2013-12-26 13:53:00
9:06 AM,60.8,57.2,88,30.23,4.0,NNW,5.8,-,N/A,,Mostly Cloudy,340,2013-12-26 14:06:00
9:53 AM,64.9,59.0,81,30.24,10.0,North,4.6,-,N/A,,Mostly Cloudy,350,2013-12-26 14:53:00
10:53 AM,72.0,60.1,66,30.22,10.0,North,3.5,-,N/A,,Mostly Cloudy,360,2013-12-26 15:53:00
11:53 AM,73.9,60.1,62,30.19,10.0,North,6.9,-,N/A,,Mostly Cloudy,360,2013-12-26 16:53:00
12:53 PM,75.9,60.1,58,30.16,10.0,NE,6.9,-,N/A,,Mostly Cloudy,40,2013-12-26 17:53:00
1:53 PM,75.9,60.1,58,30.13,10.0,ENE,5.8,-,N/A,,Mostly Cloudy,70,2013-12-26 18:53:00
2:53 PM,77.0,60.1,56,30.12,10.0,Variable,4.6,-,N/A,,Mostly Cloudy,0,2013-12-26 19:53:00
3:53 PM,78.1,60.1,54,30.11,10.0,ENE,6.9,-,N/A,,Mostly Cloudy,60,2013-12-26 20:53:00
4:53 PM,73.9,61.0,64,30.13,10.0,NE,13.8,-,N/A,,Mostly Cloudy,40,2013-12-26 21:53:00
5:53 PM,70.0,60.1,71,30.16,10.0,NNE,13.8,-,N/A,,Overcast,30,2013-12-26 22:53:00
6:53 PM,66.0,59.0,78,30.18,10.0,NE,13.8,-,N/A,,Overcast,40,2013-12-26 23:53:00
7:29 PM,62.6,57.2,82,30.20,10.0,NNE,11.5,21.9,N/A,,Overcast,20,2013-12-27 00:29:00
7:36 PM,62.6,57.2,82,30.20,10.0,NNE,12.7,-,N/A,,Overcast,20,2013-12-27 00:36:00
7:53 PM,62.1,57.9,86,30.20,10.0,NNE,15.0,-,N/A,,Overcast,20,2013-12-27 00:53:00
8:53 PM,62.1,59.0,90,30.22,7.0,North,11.5,-,N/A,,Overcast,10,2013-12-27 01:53:00
9:53 PM,62.1,59.0,90,30.22,10.0,NNE,15.0,-,N/A,,Overcast,20,2013-12-27 02:53:00
10:53 PM,61.0,57.9,90,30.22,10.0,NNE,11.5,19.6,N/A,,Overcast,20,2013-12-27 03:53:00
11:53 PM,60.1,57.9,93,30.22,10.0,NNE,11.5,-,N/A,,Overcast,30,2013-12-27 04:53:00